User: anonymous   Login
Location: Unspecified
(0.0000°N, 0.0000°E)
Time: 02:50:03
(UTC+00:00)
Language:

RS-13 - Orbit

View from above orbital plane
View from above orbital plane
View from above satellite
View from above satellite

Ground track
Ground track

The orbit data is extracted from the following two-line orbital elements,

1 21089U 91007A   21338.92016061  .00000034  00000-0  20123-4 0  9998
2 21089  82.9213 126.4046 0028189 239.2416 232.8254 13.74689253546486
Epoch (UTC): 04 December 2021 22:05:01
Eccentricity: 0.0028189
inclination: 82.9213°
perigee height: 962 km
apogee height: 1003 km
right ascension of ascending node: 126.4046°
argument of perigee: 239.2416°
revolutions per day: 13.74689253
mean anomaly at epoch: 232.8254°
orbit number at epoch: 54648

The dashed part of the orbit path shows where the satellite is in the earth's shadow,  

DLR